Time,TemperatureF,DewpointF,PressureIn,WindDirection,WindDirectionDegrees,WindSpeedMPH,WindSpeedGustMPH,Humidity,HourlyPrecipIn,Conditions,Clouds,dailyrainin,SoftwareType,DateUTC
2013-01-26 00:00:00,46.8,46.0,30.04,NW,324,3.0,6.0,96,0.01,,,0.19,weatherlink.com 1.10,2013-01-26 08:00:00,
2013-01-26 00:15:00,46.8,46.0,30.03,North,350,2.0,7.0,96,0.01,,,0.00,weatherlink.com 1.10,2013-01-26 08:15:00,
2013-01-26 00:30:00,46.7,46.0,30.03,North,4,3.0,5.0,96,0.00,,,0.00,weatherlink.com 1.10,2013-01-26 08:30:00,
2013-01-26 00:45:00,46.7,46.0,30.03,NNW,340,3.0,8.0,96,0.01,,,0.01,weatherlink.com 1.10,2013-01-26 08:45:00,
2013-01-26 01:00:00,46.7,46.0,30.02,North,8,4.0,6.0,96,0.02,,,0.02,weatherlink.com 1.10,2013-01-26 09:00:00,
2013-01-26 01:15:00,46.7,46.0,30.02,NW,323,2.0,5.0,96,0.02,,,0.02,weatherlink.com 1.10,2013-01-26 09:15:00,
2013-01-26 01:30:00,46.7,46.0,30.02,NNW,340,3.0,6.0,97,0.02,,,0.02,weatherlink.com 1.10,2013-01-26 09:30:00,
2013-01-26 01:45:00,46.8,46.0,30.02,NNW,328,4.0,8.0,97,0.02,,,0.03,weatherlink.com 1.10,2013-01-26 09:45:00,
2013-01-26 02:00:00,46.8,46.0,30.02,NNE,33,4.0,7.0,97,0.02,,,0.04,weatherlink.com 1.10,2013-01-26 10:00:00,
2013-01-26 02:15:00,46.8,46.0,30.02,NW,323,2.0,4.0,97,0.03,,,0.05,weatherlink.com 1.10,2013-01-26 10:15:00,
2013-01-26 02:30:00,46.8,46.0,30.01,NNW,328,2.0,6.0,97,0.04,,,0.07,weatherlink.com 1.10,2013-01-26 10:30:00,
2013-01-26 02:45:00,46.8,46.0,30.01,NNW,340,3.0,5.0,97,0.06,,,0.09,weatherlink.com 1.10,2013-01-26 10:45:00,
2013-01-26 03:00:00,46.8,46.0,30.00,North,11,2.0,6.0,97,0.07,,,0.11,weatherlink.com 1.10,2013-01-26 11:00:00,
2013-01-26 03:15:00,46.9,46.0,30.00,North,355,6.0,7.0,97,0.06,,,0.11,weatherlink.com 1.10,2013-01-26 11:15:00,
2013-01-26 03:30:00,46.9,46.0,29.99,NW,319,3.0,6.0,97,0.05,,,0.12,weatherlink.com 1.10,2013-01-26 11:30:00,
2013-01-26 03:45:00,46.9,46.0,29.99,NW,321,2.0,9.0,97,0.03,,,0.12,weatherlink.com 1.10,2013-01-26 11:45:00,
2013-01-26 04:01:00,46.9,46.0,29.98,North,349,4.0,7.0,97,0.01,,,0.12,weatherlink.com 1.10,2013-01-26 12:01:00,
2013-01-26 04:16:00,46.9,46.0,29.98,NW,325,3.0,8.0,97,0.00,,,0.12,weatherlink.com 1.10,2013-01-26 12:16:00,
2013-01-26 04:31:00,47.0,46.0,29.98,NNW,335,4.0,7.0,97,0.00,,,0.12,weatherlink.com 1.10,2013-01-26 12:31:00,
2013-01-26 04:46:00,47.0,46.0,29.98,North,360,2.0,7.0,97,0.00,,,0.12,weatherlink.com 1.10,2013-01-26 12:46:00,
2013-01-26 05:01:00,46.9,46.0,29.98,NNE,29,4.0,5.0,97,0.00,,,0.12,weatherlink.com 1.10,2013-01-26 13:01:00,
2013-01-26 05:16:00,46.9,46.0,29.97,NNE,25,6.0,7.0,97,0.00,,,0.12,weatherlink.com 1.10,2013-01-26 13:16:00,
2013-01-26 05:31:00,47.0,46.0,29.97,North,349,3.0,4.0,97,0.00,,,0.12,weatherlink.com 1.10,2013-01-26 13:31:00,
2013-01-26 05:46:00,47.0,46.0,29.97,NW,321,1.0,4.0,97,0.00,,,0.12,weatherlink.com 1.10,2013-01-26 13:46:00,
2013-01-26 06:01:00,47.0,46.0,29.97,NW,321,1.0,4.0,97,0.00,,,0.12,weatherlink.com 1.10,2013-01-26 14:01:00,
2013-01-26 06:16:00,47.1,46.0,29.97,North,352,4.0,6.0,97,0.00,,,0.12,weatherlink.com 1.10,2013-01-26 14:16:00,
2013-01-26 06:31:00,47.1,46.0,29.97,NW,322,2.0,5.0,97,0.00,,,0.12,weatherlink.com 1.10,2013-01-26 14:31:00,
2013-01-26 06:46:00,47.1,46.0,29.98,NNW,331,2.0,8.0,97,0.00,,,0.12,weatherlink.com 1.10,2013-01-26 14:46:00,
2013-01-26 07:01:00,47.1,46.0,29.98,NNW,328,1.0,5.0,97,0.00,,,0.12,weatherlink.com 1.10,2013-01-26 15:01:00,
2013-01-26 07:16:00,47.0,46.0,29.98,NW,313,0.0,5.0,97,0.00,,,0.12,weatherlink.com 1.10,2013-01-26 15:16:00,
2013-01-26 07:31:00,46.5,46.0,29.97,NW,304,6.0,10.0,97,0.00,,,0.12,weatherlink.com 1.10,2013-01-26 15:31:00,
2013-01-26 07:46:00,46.5,46.0,29.97,WNW,288,2.0,6.0,96,0.00,,,0.12,weatherlink.com 1.10,2013-01-26 15:46:00,
2013-01-26 08:01:00,46.6,45.0,29.97,NW,304,5.0,5.0,95,0.00,,,0.12,weatherlink.com 1.10,2013-01-26 16:01:00,
2013-01-26 08:16:00,47.1,45.0,29.97,NW,304,5.0,10.0,93,0.00,,,0.12,weatherlink.com 1.10,2013-01-26 16:16:00,
2013-01-26 08:31:00,47.6,45.0,29.97,NNW,340,6.0,11.0,92,0.00,,,0.12,weatherlink.com 1.10,2013-01-26 16:31:00,
2013-01-26 08:46:00,48.2,45.0,29.97,NW,311,7.0,15.0,89,0.00,,,0.12,weatherlink.com 1.10,2013-01-26 16:46:00,
2013-01-26 09:01:00,48.8,45.0,29.98,NW,304,7.0,11.0,88,0.00,,,0.12,weatherlink.com 1.10,2013-01-26 17:01:00,
2013-01-26 09:16:00,49.0,46.0,29.98,WNW,302,0.0,10.0,88,0.00,,,0.12,weatherlink.com 1.10,2013-01-26 17:16:00,
2013-01-26 09:31:00,49.4,46.0,29.98,WNW,289,2.0,9.0,87,0.00,,,0.12,weatherlink.com 1.10,2013-01-26 17:31:00,
2013-01-26 09:46:00,50.4,46.0,29.98,NW,315,5.0,10.0,86,0.00,,,0.12,weatherlink.com 1.10,2013-01-26 17:46:00,
2013-01-26 10:01:00,51.8,47.0,29.97,West,277,4.0,11.0,83,0.00,,,0.12,weatherlink.com 1.10,2013-01-26 18:01:00,
2013-01-26 10:16:00,53.0,47.0,29.97,WNW,296,4.0,11.0,81,0.00,,,0.12,weatherlink.com 1.10,2013-01-26 18:16:00,
2013-01-26 10:31:00,53.9,47.0,29.96,NW,312,6.0,10.0,78,0.00,,,0.12,weatherlink.com 1.10,2013-01-26 18:31:00,
2013-01-26 10:46:00,54.0,47.0,29.97,WNW,300,19.0,19.0,77,0.00,,,0.12,weatherlink.com 1.10,2013-01-26 18:46:00,
2013-01-26 11:01:00,53.6,47.0,29.96,WNW,301,6.0,20.0,77,0.00,,,0.12,weatherlink.com 1.10,2013-01-26 19:01:00,
2013-01-26 11:16:00,53.5,47.0,29.97,WNW,287,5.0,18.0,78,0.00,,,0.12,weatherlink.com 1.10,2013-01-26 19:16:00,
2013-01-26 11:32:00,53.0,46.0,29.96,WNW,282,7.0,15.0,77,0.00,,,0.12,weatherlink.com 1.10,2013-01-26 19:32:00,
2013-01-26 11:47:00,53.2,47.0,29.96,WNW,289,11.0,17.0,78,0.00,,,0.12,weatherlink.com 1.10,2013-01-26 19:47:00,
2013-01-26 12:02:00,54.5,46.0,29.95,West,273,3.0,10.0,74,0.00,,,0.12,weatherlink.com 1.10,2013-01-26 20:02:00,
2013-01-26 12:17:00,54.0,46.0,29.95,West,264,4.0,19.0,73,0.00,,,0.12,weatherlink.com 1.10,2013-01-26 20:17:00,
2013-01-26 12:32:00,54.3,45.0,29.94,WNW,289,6.0,18.0,71,0.00,,,0.12,weatherlink.com 1.10,2013-01-26 20:32:00,
2013-01-26 12:47:00,54.6,45.0,29.93,WNW,297,7.0,22.0,71,0.00,,,0.12,weatherlink.com 1.10,2013-01-26 20:47:00,
2013-01-26 13:02:00,54.3,45.0,29.92,West,278,8.0,21.0,70,0.00,,,0.12,weatherlink.com 1.10,2013-01-26 21:02:00,
2013-01-26 13:17:00,54.1,45.0,29.92,WNW,293,7.0,23.0,72,0.00,,,0.12,weatherlink.com 1.10,2013-01-26 21:17:00,
2013-01-26 13:32:00,53.7,45.0,29.92,WNW,300,7.0,28.0,72,0.00,,,0.12,weatherlink.com 1.10,2013-01-26 21:32:00,
2013-01-26 13:47:00,53.2,45.0,29.91,NW,304,12.0,24.0,74,0.00,,,0.12,weatherlink.com 1.10,2013-01-26 21:47:00,
2013-01-26 14:02:00,52.9,45.0,29.91,WSW,243,5.0,18.0,74,0.00,,,0.12,weatherlink.com 1.10,2013-01-26 22:02:00,
2013-01-26 14:17:00,53.5,45.0,29.91,NW,307,9.0,21.0,73,0.00,,,0.12,weatherlink.com 1.10,2013-01-26 22:17:00,
2013-01-26 14:32:00,53.0,45.0,29.91,WNW,291,7.0,19.0,75,0.00,,,0.12,weatherlink.com 1.10,2013-01-26 22:32:00,
2013-01-26 14:47:00,52.1,45.0,29.92,West,276,6.0,21.0,77,0.00,,,0.12,weatherlink.com 1.10,2013-01-26 22:47:00,
2013-01-26 15:02:00,51.9,45.0,29.92,NW,304,6.0,20.0,77,0.00,,,0.12,weatherlink.com 1.10,2013-01-26 23:02:00,
2013-01-26 15:17:00,52.3,45.0,29.91,NW,304,11.0,18.0,77,0.00,,,0.12,weatherlink.com 1.10,2013-01-26 23:17:00,
2013-01-26 15:32:00,52.6,45.0,29.91,NW,319,4.0,20.0,76,0.00,,,0.12,weatherlink.com 1.10,2013-01-26 23:32:00,
2013-01-26 15:47:00,51.9,45.0,29.92,WNW,300,11.0,18.0,78,0.00,,,0.12,weatherlink.com 1.10,2013-01-26 23:47:00,
2013-01-26 16:02:00,51.1,45.0,29.91,NW,321,8.0,20.0,80,0.00,,,0.12,weatherlink.com 1.10,2013-01-27 00:02:00,
2013-01-26 16:17:00,51.1,45.0,29.92,WNW,293,3.0,14.0,80,0.00,,,0.12,weatherlink.com 1.10,2013-01-27 00:17:00,
2013-01-26 16:32:00,50.0,45.0,29.91,WNW,302,7.0,19.0,82,0.00,,,0.12,weatherlink.com 1.10,2013-01-27 00:32:00,
2013-01-26 16:47:00,49.0,44.0,29.91,WNW,300,5.0,16.0,83,0.00,,,0.12,weatherlink.com 1.10,2013-01-27 00:47:00,
2013-01-26 17:02:00,48.6,44.0,29.92,NW,318,6.0,16.0,84,0.00,,,0.12,weatherlink.com 1.10,2013-01-27 01:02:00,
2013-01-26 17:17:00,48.2,44.0,29.92,WNW,302,14.0,16.0,84,0.00,,,0.12,weatherlink.com 1.10,2013-01-27 01:17:00,
2013-01-26 17:32:00,48.0,44.0,29.93,NW,316,11.0,17.0,85,0.00,,,0.12,weatherlink.com 1.10,2013-01-27 01:32:00,
2013-01-26 17:47:00,47.7,43.0,29.93,WNW,291,4.0,15.0,85,0.00,,,0.12,weatherlink.com 1.10,2013-01-27 01:47:00,
2013-01-26 18:02:00,47.7,43.0,29.94,WNW,300,4.0,14.0,84,0.00,,,0.12,weatherlink.com 1.10,2013-01-27 02:02:00,
2013-01-26 18:17:00,47.9,43.0,29.94,NW,311,7.0,14.0,84,0.00,,,0.12,weatherlink.com 1.10,2013-01-27 02:17:00,
2013-01-26 18:32:00,47.9,43.0,29.94,WNW,301,3.0,16.0,84,0.00,,,0.12,weatherlink.com 1.10,2013-01-27 02:32:00,
2013-01-26 18:47:00,47.9,43.0,29.94,WNW,295,8.0,15.0,84,0.00,,,0.12,weatherlink.com 1.10,2013-01-27 02:47:00,
2013-01-26 19:02:00,48.3,43.0,29.94,WNW,296,4.0,11.0,83,0.00,,,0.12,weatherlink.com 1.10,2013-01-27 03:02:00,
2013-01-26 19:17:00,47.9,43.0,29.95,NNW,328,3.0,7.0,82,0.00,,,0.12,weatherlink.com 1.10,2013-01-27 03:17:00,
2013-01-26 19:32:00,47.9,42.0,29.95,NNW,328,5.0,12.0,81,0.00,,,0.12,weatherlink.com 1.10,2013-01-27 03:32:00,
2013-01-26 19:47:00,47.4,43.0,29.94,NW,316,0.0,7.0,83,0.00,,,0.12,weatherlink.com 1.10,2013-01-27 03:47:00,
2013-01-26 20:02:00,45.9,42.0,29.94,NW,308,0.0,4.0,85,0.00,,,0.12,weatherlink.com 1.10,2013-01-27 04:02:00,
2013-01-26 20:17:00,45.2,42.0,29.95,NW,308,0.0,1.0,87,0.00,,,0.12,weatherlink.com 1.10,2013-01-27 04:17:00,
2013-01-26 20:32:00,45.0,42.0,29.95,NW,308,0.0,0.0,88,0.00,,,0.12,weatherlink.com 1.10,2013-01-27 04:32:00,
2013-01-26 20:47:00,44.4,42.0,29.94,SSW,209,0.0,3.0,90,0.00,,,0.12,weatherlink.com 1.10,2013-01-27 04:47:00,
2013-01-26 21:02:00,44.0,42.0,29.94,SSW,205,0.0,1.0,91,0.00,,,0.12,weatherlink.com 1.10,2013-01-27 05:02:00,
2013-01-26 21:17:00,44.0,42.0,29.95,West,270,0.0,2.0,92,0.00,,,0.12,weatherlink.com 1.10,2013-01-27 05:17:00,
2013-01-26 21:32:00,44.9,43.0,29.95,WSW,244,1.0,7.0,92,0.00,,,0.12,weatherlink.com 1.10,2013-01-27 05:32:00,
2013-01-26 21:47:00,45.4,42.0,29.96,West,276,1.0,6.0,89,0.00,,,0.12,weatherlink.com 1.10,2013-01-27 05:47:00,
2013-01-26 22:02:00,45.5,42.0,29.95,SSW,212,4.0,5.0,88,0.00,,,0.12,weatherlink.com 1.10,2013-01-27 06:02:00,
2013-01-26 22:17:00,46.3,43.0,29.96,West,277,1.0,11.0,87,0.00,,,0.12,weatherlink.com 1.10,2013-01-27 06:17:00,
2013-01-26 22:32:00,46.7,43.0,29.96,NW,311,1.0,5.0,86,0.00,,,0.12,weatherlink.com 1.10,2013-01-27 06:32:00,
2013-01-26 22:47:00,47.0,43.0,29.96,WNW,291,1.0,7.0,85,0.00,,,0.12,weatherlink.com 1.10,2013-01-27 06:47:00,
2013-01-26 23:02:00,46.9,43.0,29.96,NNW,328,2.0,11.0,85,0.00,,,0.12,weatherlink.com 1.10,2013-01-27 07:02:00,
2013-01-26 23:17:00,47.1,43.0,29.96,West,273,2.0,12.0,86,0.00,,,0.12,weatherlink.com 1.10,2013-01-27 07:17:00,
2013-01-26 23:32:00,47.1,44.0,29.95,SW,225,6.0,7.0,89,0.00,,,0.12,weatherlink.com 1.10,2013-01-27 07:32:00,
2013-01-26 23:47:00,47.1,45.0,29.95,WNW,290,3.0,6.0,91,0.00,,,0.12,weatherlink.com 1.10,2013-01-27 07:47:00,